User: anonymous   Login
Location: Unspecified
(0.0000°N, 0.0000°E)
Time: 06:20:48
(UTC+00:00)
Language:

MetOp-B - Orbit

View from above orbital plane
View from above orbital plane
View from above satellite
View from above satellite

Ground track
Ground track

The orbit data is extracted from the following two-line orbital elements,

1 38771U 12049A   22225.90892361  .00000060  00000-0  47238-4 0  9997
2 38771  98.6919 284.8004 0000594 128.8574 222.6420 14.21500999513893
Epoch (UTC): 13 August 2022 21:48:51
Eccentricity: 0.0000594
inclination: 98.6919°
perigee height: 820 km
apogee height: 821 km
right ascension of ascending node: 284.8004°
argument of perigee: 128.8574°
revolutions per day: 14.21500999
mean anomaly at epoch: 222.6420°
orbit number at epoch: 51389

The dashed part of the orbit path shows where the satellite is in the earth's shadow,  

DLR